Regional Weather Roundup
Issued by NWS Sterling, VA

Home | Current Version | Previous Version | Graphics & Text | Print | Product List | Glossary On
Versions: 1 2 3 4 5 6 7 8 9 10 11 12 13 14 15 16 17 18 19 20 21 22 23 24 25 26 27 28 29 30 31 32 33 34 35 36 37 38 39 40 41 42 43 44 45 46 47 48 49 50
000
ASUS41 KLWX 200910
RWRLWX

REGIONAL WEATHER ROUNDUP
NATIONAL WEATHER SERVICE BALTIMORE MD/WASHINGTON DC
500 AM EDT WED AUG 20 2014

Note: "FAIR" indicates few or no clouds below 12,000 feet
with no significant weather and/or obstructions to visibility.
 TC=TEMPERATURE CELSIUS

 * =Non NWS site. Station does not report precipitation (e.g. rain,
    snow, etc.), thunder, or fog.

DCZ001-MDZ009-015-VAZ040>042-051-053>054-201000-
WASHINGTON METRO
  /KDAA//-FT BELVOIR

CITY           SKY/WX    TMP DP  RH WIND       PRES   REMARKS
WASHINGTON NAT PTCLDY    73  62  68 SE7       29.92S
DULLES         CLOUDY    70  66  87 S3        29.92S
ANDREWS AFB    CLEAR     67  65  93 E2        29.93R
QUANTICO       CLOUDY    72  67  84 S6        29.93R
COLLEGE PARK*  CLEAR     66  66 100 CALM      29.92S
LEESBURG*      CLOUDY    73  72  94 CALM      29.94R
MANASSAS*      MOCLDY    70  70 100 CALM      29.92S
GAITHERSBURG*  CLOUDY    66  64  94 CALM      29.97R

$$

MDZ006>007-011-014-201000-
BALTIMORE METRO

CITY           SKY/WX    TMP DP  RH WIND       PRES   REMARKS
BWI AIRPORT    PTCLDY    67  63  87 CALM      29.92F
MD SCIENCE CTR   N/A     73  63  70 MISG      29.93S
MARTIN STATE   PTCLDY    70  68  94 CALM      29.94S
ANNAPOLIS      CLEAR     68  65  90 CALM      29.92S
FORT MEADE*    MOCLDY    61  61 100 CALM      29.95S

$$

MDZ012-015-019>023-201000-
MARYLAND EASTERN SHORE

CITY           SKY/WX    TMP DP  RH WIND       PRES   REMARKS
OCEAN CITY     CLEAR     72  65  78 NE6       29.91S
SALISBURY      CLEAR     66  62  87 CALM      29.92R
BAY BRIDGE AP*   N/A     66  64  94 CALM      29.93S
CAMBRIDGE*     CLEAR     63  61  94 CALM      29.92S
EASTON*        CLEAR     65  65 100 CALM      29.96S

$$

MDZ017>025-201000-
SOUTHERN MARYLAND

CITY           SKY/WX    TMP DP  RH WIND       PRES   REMARKS
PATUXENT RIVER CLEAR     65  63  93 CALM      29.92S
ST INIGOES     CLEAR     64  60  87 CALM      29.91S FOG
LEONARDTOWN*   CLEAR     64  63  94 CALM      29.94S

$$

MDZ003>005-201000-
NORTH CENTRAL MARYLAND

CITY           SKY/WX    TMP DP  RH WIND       PRES   REMARKS
FREDERICK*     CLOUDY    70  70 100 CALM      29.94F
HAGERSTOWN APT CLEAR     71  66  84 SE7       29.92R
WESTMINSTER*   CLEAR     70  64  83 SE3       29.94S

$$

MDZ501>502-201000-
WESTERN MARYLAND

CITY           SKY/WX    TMP DP  RH WIND       PRES   REMARKS
OAKLAND*       PTCLDY    63 N/A N/A SW6       29.99S HAZE
CUMBERLAND*    CLOUDY    70  68  94 CALM      29.95S VSB 3/4

$$

VAZ025>031-201000-
SHENANDOAH VALLEY

CITY           SKY/WX    TMP DP  RH WIND       PRES   REMARKS
WINCHESTER*    CLEAR     64  64 100 CALM      29.92S FOG
STAUNTON*      MOCLDY    67  65  94 CALM      29.96S FOG

$$

WVZ021-048>050-054>055-201000-
EASTERN WEST VIRGINIA PANHANDLE

CITY           SKY/WX    TMP DP  RH WIND       PRES   REMARKS
MARTINSBURG    CLEAR     68  64  87 CALM      29.92S FOG
PETERSBURG*    NOT AVBL

$$

VAZ036>039-050-201000-
CENTRAL FOOTHILLS

CITY           SKY/WX    TMP DP  RH WIND       PRES   REMARKS
CHARLOTTESVILL CLOUDY    72  70  93 S5        29.93S
ORANGE*        CLOUDY    68  66  94 CALM      29.94S FOG

$$

VAZ055>057-201000-
NORTH AND CENTRAL PIEDMONT

CITY           SKY/WX    TMP DP  RH WIND       PRES   REMARKS
FREDERICKSBRG* CLOUDY    69  69 100 CALM      29.91S FOG
STAFFORD*      CLOUDY    67  67 100 CALM      29.96S FOG

$$

NCZ024-NYZ072-PAZ021-071-VAZ022-071-201000-
OTHER REGIONAL OBSERVATIONS

CITY           SKY/WX    TMP DP  RH WIND       PRES   REMARKS
NEW YORK CITY  MOCLDY    70  62  76 CALM      29.98R
PHILADELPHIA   CLOUDY    72  65  78 SE3       29.95S
PITTSBURGH     CLOUDY    66  65  96 N10       29.92R
ROANOKE        CLEAR     65  63  93 NW3       29.98R
RICHMOND       PTCLDY    71  68  90 NE3       29.92R
RALEIGH        CLOUDY    72  70  93 NE5       29.92R FOG

$$

ANZ530>537-201000-
MARINE OBSERVATIONS

STATION/POSITION TIME  TEMP    WIND        PRES
                       AIR SEA DIR/SP/G
                 (UTC) (F)     (DEG/KT/KT) (MB)
THOMAS PT LIGHT  0900   73 77  130/  7/  7 1013.7S
BALT KEY BRIDGE  0900   74     140/  6/  7 1012.9F
COVE POINT       0900   72      80/  5/  6 1013.0S
LEWISETTA        0900   74 78   70/  6/  7 1012.6S
SOLOMONS ISLAND  0900      80                N/A
PINEY POINT      0900           30/  4/  4   N/A

$$



USA.gov is the U.S. government's official web portal to all federal, state and local government web resources and services.